FENGYUN 1C DEB, 40696

Orbit data source: Space-Track

FENGYUN 1C DEB, 40696 is space debris in SSO originally from a launch on Mon, 10 May 1999 UTC launched from the Taiyaun Space Center, China (TSC). Fengyun 1C debris stems from the Chinese weather satellite Fengyun-1C, which was intentionally destroyed by a Chinese anti-satellite missile in 2007. This event dramatically increased the amount of space debris, with thousands of trackable fragments posing hazards to satellites and human spaceflight. The Fengyun 1C debris cloud has become a focal point in discussions about space sustainability and the need for international regulations to prevent the creation of new debris.

Loading next visibility...
FENGYUN 1C DEB details
Identifier
40696, 1999-025EXC
Orbit
SSO
Last TLE update2 days ago
Origin
Flag of CNCASC (CN / PRC)
ManufacturerUnknown
MissionSpacecraft
Bus & MotorUnknown
MassUnknown
Launch date (UTC)
1999-05-10 (26 years ago)
Launch vehicleUnknown
Launch site
Taiyaun Space Center, China (TSC)
Object type
Payload
Rocket body
Debris
Shape & HBRUnknown
Radar Cross SectionSmall (<0.1 m²)

Expand to show TLE details & history

TLE from 2 days ago
0 FENGYUN 1C DEB
1 40696U 99025EXC 24359.73947250  .00000359  00000-0  28390-3 0  9992
2 40696  98.9288 350.3110 0079351 248.3406 110.9292 13.96469952507523
Epoch: 2024-12-24T17:44Z
Definitive object data (Epoch: 2024-12-24T17:44:50.424Z)
Latitude-0.00001°
Longitude-9.64235°
Altitude929.97 km
Speed7.376 km/s
True Right ascension23h 21m 14s
True Declination0° 00' 00"
Sunlit
Object was in daylight at TLE epoch
Visualization TLE readout
Latitude66.81774°
Longitude-29.15831°
Altitude975.093 km
Speed7.341 km/s
Apparent Right ascension01h 52m 48s
Apparent Declination24° 39' 18"
Sunlit
Object is in daylight
Visualization observer readout
Local Sidereal Time15:52:33
Azimuth28.792° NE
Elevation-19.656°
Doppler factor1
Orbital elements
Apogee altitude961.024 km
Perigee altitude845.467 km
Semi-major axis7,281.382 km
Eccentricity0.0079351
Inclination98.9288°
RAAN350.311°
Arg. of periapsis248.3406°
True anomaly111.77547°
Mean anomaly110.9292°
Eccentric anomaly111.35264°
Mean motion3.49319 °/min
BSTAR0.0002839
Orbital period103.06 mins
Loading maneuver chart data...
Loading historical data...
Loading historical data...
Loading historical data...
Loading historical data...
Loading historical data...
Loading historical data...
Loading historical data...

FENGYUN 1C DEB Visibility forecast

Observer location: undefined°, undefined

Span
Click to sort rows by Start time (UTC) header in descending order
Start Az.
Max El. time (UTC)
Max El. Az.
Max El.
End time (UTC)
End Az.
10 mins2024-12-26 23:10:22.323Z148.539° SSE2024-12-26 23:15:22.323Z67.063° ENE41.358°2024-12-26 23:20:22.323Z354.923° N
7 mins2024-12-27 00:54:22.323Z232.367° WSW2024-12-27 00:57:22.323Z266.92° W18.487°2024-12-27 01:01:22.323Z310.55° NW
9 mins2024-12-27 11:42:22.323Z39.752° NE2024-12-27 11:46:22.323Z96.24° ESE29.141°2024-12-27 11:51:22.323Z159.679° S
8 mins2024-12-27 13:24:22.323Z347.589° N2024-12-27 13:28:22.323Z288.046° WNW29.306°2024-12-27 13:32:22.323Z235.263° WSW
|